Regional Weather Roundup
Issued by NWS

Home | Current Version | Previous Version | Text Only | Print | Product List | Glossary Off
Versions: 1 2 3 4 5 6 7 8 9 10 11 12 13 14 15 16 17 18 19 20 21 22 23 24 25 26 27 28 29 30 31 32 33 34 35 36 37 38 39 40 41 42 43 44 45 46 47 48 49 50

477
ASUS44 KJAN 261410
RWRMS

MISSISSIPPI HOURLY WEATHER ROUNDUP
NATIONAL WEATHER SERVICE JACKSON MS
900 AM CDT SAT JUL 26 2014

NOTE: "FAIR: INDICATES FEW OR NO CLOUDS BELOW 12,000 FEET WITH NO
SIGNIFICANT WEATHER AND/OR OBSTRUCTIONS TO VISIBILITY.

MSZ001>002-007>008-010>013-018>021-025>028-034>036-261500-
NORTHWEST MISSISSIPPI

CITY           SKY/WX    TMP DP  RH WIND       PRES   REMARKS
CLARKSDALE     FAIR      81  75  83 CALM      30.05S
CLEVELAND      FAIR      80  76  89 SW7       30.05R
GREENWOOD      SUNNY     81  73  76 SW5       30.06R
GREENVILLE     SUNNY     82  74  76 SW6       30.05R
GRENADA        FAIR      79  70  73 SW5       30.06S
OLIVE BRANCH   SUNNY     77  73  88 SW9       30.04S
OXFORD         FAIR      75  68  78 SW5       30.08R
TUNICA         SUNNY     79  72  78 S10       30.04S
$$

MSZ003>006-009-014>017-022>024-029>033-037>039-261500-
NORTHEAST MISSISSIPPI

CITY           SKY/WX    TMP DP  RH WIND       PRES   REMARKS
BELMONT        FAIR      75  67  76 SW6       30.07S
COLUMBUS AFB   SUNNY     77  67  70 W1        30.07S
CORINTH        FAIR      75  66  73 SW5       30.05S
GOLDN TRIANGLE MOSUNNY   77  68  73 CALM      30.08R
STARKVILLE     PTSUNNY   77  68  73 SW3       30.07S
TUPELO         PTSUNNY   77  67  71 SW3       30.06S
$$

MSZ040-058-261500-
CENTRAL MISSISSIPPI

CITY           SKY/WX    TMP DP  RH WIND       PRES   REMARKS
JACKSON INTL   SUNNY     83  76  79 W3        30.08R HX  91
JACKSON HAWKNS SUNNY     83  75  77 W5        30.08R HX  90
MERIDIAN KEY   MOSUNNY   82  72  71 W3        30.08R
MERIDIAN NAS   SUNNY     81  72  74 W5        30.08R
RAYMOND        FAIR      82  77  83 W5        30.08R HX  91
VICKSBURG      SUNNY     83  77  82 VRB3      30.06R HX  92
$$

MSZ059>079-261500-
SOUTH MISSISSIPPI

CITY           SKY/WX    TMP DP  RH WIND       PRES   REMARKS
BROOKHAVEN     FAIR      81  77  89 W7        30.11R
COLUMBIA       FAIR      81  77  89 NW5       30.08R
HATTIESBURG    SUNNY     83  76  79 NW6G24    30.09R HX  91
MCCOMB         SUNNY     81  75  82 W7        30.09R
NATCHEZ        SUNNY     81  75  83 SW6       30.09S
PINE BELT      SUNNY     81  73  78 NW6       30.10R
$$

MSZ080>082-261500-
COASTAL MISSISSIPPI

CITY           SKY/WX    TMP DP  RH WIND       PRES   REMARKS
BAY ST LOUIS   SUNNY    N/A N/A N/A CALM      30.09R
BILOXI         SUNNY     85  77  78 VRB3      30.08R HX  96
PASCAGOULA     SUNNY     84  76  76 VRB5      30.08R HX  93
GULFPORT       SUNNY     86  76  71 W9        30.08R HX  96
$$



USA.gov is the U.S. government's official web portal to all federal, state and local government web resources and services.